EW5286 Weather Reports


time (UTC)temp
C
wind
direction
speed
KPH
gust
KPH
rain 1hr
cm
rain 24hr
cm
rain mn
cm
humidity
%
barometer
mb
20260508161936 18 231 4.8 14.5 0.00 0.00 0.00 68 1014.4
20260508161529 18 248 4.8 9.7 0.00 0.00 0.00 67 1014.1
20260508161425 18 250 6.4 9.7 0.00 0.00 0.00 68 1014.5
20260508160937 18 252 6.4 9.7 0.00 0.00 0.00 68 1014.6
20260508160448 18 269 6.4 11.3 0.00 0.00 0.00 67 1014.6
20260508160010 18 231 4.8 11.3 0.00 0.00 0.00 68 1014.4
20260508155929 18 243 6.4 14.5 0.00 0.00 0.00 71 1014.8
20260508155441 18 253 6.4 14.5 0.00 0.00 0.00 71 1014.8
20260508154923 18 249 6.4 12.9 0.00 0.00 0.00 69 1014.8
20260508154519 18 176 3.2 8.0 0.00 0.00 0.00 72 1014.5
20260508154433 18 224 3.2 8.0 0.00 0.00 0.00 73 1014.8
20260508153945 18 240 4.8 8.0 0.00 0.00 0.00 72 1014.8
20260508153428 18 251 4.8 11.3 0.00 0.00 0.00 74 1014.9
20260508153039 17 248 4.8 12.9 0.00 0.00 0.00 72 1014.6
20260508152938 18 246 6.4 12.9 0.00 0.00 0.00 73 1014.9
20260508152444 18 226 4.8 14.5 0.00 0.00 0.00 74 1014.9
20260508151926 18 185 4.8 14.5 0.00 0.00 0.00 73 1015.1
20260508151514 17 179 3.2 12.9 0.00 0.00 0.00 73 1014.8
20260508151457 17 229 4.8 12.9 0.00 0.00 0.00 73 1015.1
20260508150928 17 253 6.4 9.7 0.00 0.00 0.00 74 1015.2
20260508150440 17 250 6.4 11.3 0.00 0.00 0.00 74 1015.2
20260508150002 17 245 3.2 11.3 0.00 0.00 0.00 73 1014.8
20260508145921 17 238 4.8 11.3 0.00 0.00 0.00 73 1015.2
20260508145433 17 204 3.2 9.7 0.00 0.00 0.00 73 1015.1
20260508144947 17 236 3.2 6.4 0.00 0.00 0.00 76 1015.1
20260508144509 16 238 1.6 6.4 0.00 0.00 0.00 75 1014.8
20260508144426 17 241 1.6 6.4 0.00 0.00 0.00 76 1015.1
20260508143938 17 278 1.6 6.4 0.00 0.00 0.00 76 1015.1
20260508143440 16 207 1.6 6.4 0.00 0.00 0.00 75 1015.1
20260508143023 16 233 1.6 6.4 0.00 0.00 0.00 74 1014.8
20260508142930 16 193 1.6 6.4 0.00 0.00 0.00 74 1015.1
20260508142437 16 214 3.2 6.4 0.00 0.00 0.00 75 1015.1
20260508141948 16 248 3.2 6.4 0.00 0.00 0.00 75 1015.2
20260508141604 15 246 1.6 6.4 0.00 0.00 0.00 78 1014.9
20260508141436 15 205 1.6 6.4 0.00 0.00 0.00 79 1015.2
20260508140933 15 248 1.6 6.4 0.00 0.00 0.00 78 1015.2
20260508140445 15 222 0.0 4.8 0.00 0.00 0.00 80 1015.4
20260508140033 15 220 0.0 4.8 0.00 0.00 0.00 80 1015.1
20260508135934 15 217 1.6 4.8 0.00 0.00 0.00 81 1015.5
20260508135502 15 266 1.6 4.8 0.00 0.00 0.00 81 1015.3
20260508134923 14 233 1.6 3.2 0.00 0.00 0.00 82 1015.3
20260508134514 13 227 0.0 3.2 0.00 0.00 0.00 82 1015.0
20260508134453 14 247 1.6 3.2 0.00 0.00 0.00 82 1015.2
20260508133924 13 257 0.0 6.4 0.00 0.00 0.00 81 1015.2
20260508133436 13 172 1.6 6.4 0.00 0.00 0.00 82 1015.2
20260508133121 13 213 1.6 6.4 0.00 0.00 0.00 83 1014.9
20260508132937 13 228 0.0 6.4 0.00 0.00 0.00 83 1015.2
20260508132449 13 243 1.6 6.4 0.00 0.00 0.00 84 1015.2
20260508131940 13 208 1.6 6.4 0.00 0.00 0.00 84 1015.3
20260508131553 12 219 1.6 6.4 0.00 0.00 0.00 84 1015.0
20260508131421 13 264 3.2 6.4 0.00 0.00 0.00 85 1015.3
20260508130933 12 231 3.2 8.0 0.00 0.00 0.00 86 1015.6
20260508130445 12 246 3.2 8.0 0.00 0.00 0.00 87 1015.6
20260508130037 12 250 3.2 6.4 0.00 0.00 0.00 88 1015.3
20260508125949 12 200 3.2 6.4 0.00 0.00 0.00 88 1015.6
20260508125431 12 232 3.2 4.8 0.00 0.00 0.00 88 1015.6
20260508124923 12 231 3.2 3.2 0.00 0.00 0.00 88 1015.4
20260508124545 11 236 1.6 4.8 0.00 0.00 0.00 88 1015.0
20260508124424 11 231 3.2 4.8 0.00 0.00 0.00 88 1015.3
20260508123936 11 237 3.2 4.8 0.00 0.00 0.00 88 1015.2
20260508123428 11 233 1.6 8.0 0.00 0.00 0.00 89 1015.4
20260508123057 11 230 3.2 8.0 0.00 0.00 0.00 89 1015.2
20260508122958 11 239 4.8 8.0 0.00 0.00 0.00 89 1015.5
20260508122508 11 235 4.8 6.4 0.00 0.00 0.00 89 1015.6
20260508121930 11 236 4.8 6.4 0.00 0.00 0.00 88 1015.6
20260508121520 11 238 3.2 4.8 0.00 0.00 0.00 88 1015.2
20260508121440 11 233 4.8 4.8 0.00 0.00 0.00 88 1015.5
20260508120922 11 229 3.2 4.8 0.00 0.00 0.00 88 1015.5
20260508120433 11 235 3.2 4.8 0.00 0.00 0.00 88 1015.5
20260508120027 11 236 3.2 4.8 0.00 0.00 0.00 88 1015.2
20260508115923 11 228 3.2 4.8 0.00 0.00 0.00 87 1015.4
20260508115454 11 232 3.2 3.2 0.00 0.00 0.00 87 1015.2
20260508115001 11 233 1.6 3.2 0.00 0.00 0.00 87 1015.2
20260508114557 11 233 1.6 4.8 0.00 0.00 0.00 86 1014.9
20260508114421 11 239 3.2 4.8 0.00 0.00 0.00 86 1015.2
20260508113930 11 235 3.2 6.4 0.00 0.00 0.00 86 1015.3
20260508113441 11 229 3.2 6.4 0.00 0.00 0.00 85 1015.2
20260508113102 11 238 3.2 6.4 0.00 0.00 0.00 85 1014.9
20260508112922 11 219 4.8 4.8 0.00 0.00 0.00 85 1015.2
20260508112433 11 265 4.8 4.8 0.00 0.00 0.00 86 1015.4
20260508111931 11 248 3.2 4.8 0.00 0.00 0.00 85 1015.2
20260508111603 11 233 3.2 3.2 0.00 0.00 0.00 84 1014.7
20260508111433 11 232 3.2 3.2 0.00 0.00 0.00 84 1014.9
20260508110924 11 229 1.6 3.2 0.00 0.00 0.00 84 1014.9
20260508110427 12 240 1.6 3.2 0.00 0.00 0.00 83 1014.9
20260508110104 11 217 0.0 3.2 0.00 0.00 0.00 83 1014.6
20260508105428 12 236 1.6 3.2 0.00 0.00 0.00 83 1014.8
20260508104931 12 238 1.6 3.2 0.00 0.00 0.00 83 1014.8
20260508104510 11 236 1.6 3.2 0.00 0.00 0.00 83 1014.5
20260508104421 12 236 1.6 3.2 0.00 0.00 0.00 83 1014.8
20260508103932 12 236 1.6 3.2 0.00 0.00 0.00 83 1014.7
20260508103436 12 238 1.6 3.2 0.00 0.00 0.00 82 1014.8
20260508103020 11 240 0.0 1.6 0.00 0.00 0.00 82 1014.5
20260508102925 12 241 1.6 1.6 0.00 0.00 0.00 83 1014.8
20260508102458 12 238 1.6 1.6 0.00 0.00 0.00 82 1014.8
20260508101944 12 238 1.6 3.2 0.00 0.00 0.00 82 1014.7
20260508101507 12 233 0.0 3.2 0.00 0.00 0.00 82 1014.3
20260508101445 12 240 1.6 3.2 0.00 0.00 0.00 82 1014.6
20260508100935 12 235 1.6 3.2 0.00 0.00 0.00 82 1014.7
20260508100447 12 236 1.6 3.2 0.00 0.00 0.00 82 1014.7
20260508100057 12 239 1.6 3.2 0.00 0.00 0.00 82 1014.4
20260508095927 12 236 3.2 3.2 0.00 0.00 0.00 82 1014.8
20260508095438 12 238 1.6 4.8 0.00 0.00 0.00 82 1014.8
20260508094930 12 232 3.2 4.8 0.00 0.00 0.00 82 1014.9
20260508094550 12 236 1.6 4.8 0.00 0.00 0.00 81 1014.7
20260508094440 12 235 3.2 4.8 0.00 0.00 0.00 81 1015.0
20260508093940 12 241 3.2 4.8 0.00 0.00 0.00 82 1014.9
20260508093432 12 236 3.2 4.8 0.00 0.00 0.00 82 1015.0
20260508093052 12 237 1.6 4.8 0.00 0.00 0.00 82 1014.8
20260508093002 12 236 3.2 4.8 0.00 0.00 0.00 82 1015.0
20260508092424 12 231 3.2 4.8 0.00 0.00 0.00 83 1015.0
20260508091936 12 242 3.2 3.2 0.00 0.00 0.00 83 1015.0
20260508091541 11 240 1.6 3.2 0.00 0.00 0.00 84 1014.8
20260508091446 12 244 1.6 3.2 0.00 0.00 0.00 84 1015.0
20260508090958 12 236 3.2 3.2 0.00 0.00 0.00 83 1015.1
20260508090434 12 245 1.6 3.2 0.00 0.00 0.00 83 1015.0
20260508090027 12 248 1.6 3.2 0.00 0.00 0.00 83 1014.7
20260508085924 12 243 1.6 3.2 0.00 0.00 0.00 83 1015.0
20260508085427 12 240 1.6 3.2 0.00 0.00 0.00 83 1015.0
20260508084939 12 243 3.2 3.2 0.00 0.00 0.00 83 1014.9
20260508084533 12 238 1.6 3.2 0.00 0.00 0.00 83 1014.7
20260508084430 12 236 3.2 3.2 0.00 0.00 0.00 83 1015.0
20260508083933 12 241 3.2 4.8 0.00 0.00 0.00 83 1015.0
20260508083424 12 231 3.2 4.8 0.00 0.00 0.00 83 1014.9
20260508083041 11 222 1.6 4.8 0.00 0.00 0.00 84 1014.6
20260508082925 12 242 3.2 4.8 0.00 0.00 0.00 84 1014.9
20260508082436 12 235 3.2 4.8 0.00 0.00 0.00 84 1014.9
20260508081928 12 240 3.2 4.8 0.00 0.00 0.00 85 1014.9
20260508081603 12 239 3.2 4.8 0.00 0.00 0.00 85 1014.6
20260508081458 12 235 3.2 4.8 0.00 0.00 0.00 85 1014.9
20260508080948 12 243 3.2 3.2 0.00 0.00 0.00 85 1014.8
20260508080430 12 243 1.6 4.8 0.00 0.00 0.00 84 1014.7
20260508080035 12 245 1.6 6.4 0.00 0.00 0.00 84 1014.5
20260508075938 12 245 3.2 6.4 0.00 0.00 0.00 84 1014.8
20260508075421 12 250 3.2 6.4 0.00 0.00 0.00 84 1014.9
20260508074933 12 244 3.2 6.4 0.00 0.00 0.00 85 1014.9
20260508074523 12 248 3.2 6.4 0.00 0.00 0.00 85 1014.7
20260508074423 12 245 4.8 6.4 0.00 0.00 0.00 85 1014.8
20260508073951 12 240 3.2 4.8 0.00 0.00 0.00 85 1014.9
20260508073432 12 238 3.2 4.8 0.00 0.00 0.00 86 1014.9
20260508073017 12 238 3.2 4.8 0.00 0.00 0.00 86 1014.7
20260508072930 12 249 3.2 4.8 0.00 0.00 0.00 86 1014.9
20260508072439 12 236 3.2 4.8 0.00 0.00 0.00 87 1014.9
20260508071950 12 240 3.2 3.2 0.00 0.00 0.00 86 1014.9
20260508071546 12 242 1.6 4.8 0.00 0.00 0.00 86 1014.7
20260508071429 12 239 3.2 4.8 0.00 0.00 0.00 86 1014.9
20260508071010 12 236 3.2 4.8 0.00 0.00 0.00 86 1014.9
20260508070431 12 269 3.2 4.8 0.00 0.00 0.00 87 1015.0
20260508070032 12 240 3.2 4.8 0.00 0.00 0.00 87 1014.8
20260508065941 12 235 3.2 4.8 0.00 0.00 0.00 87 1015.0
20260508065421 12 243 3.2 4.8 0.00 0.00 0.00 87 1015.0
20260508064932 12 242 3.2 3.2 0.00 0.00 0.00 87 1015.0
20260508064537 12 237 1.6 3.2 0.00 0.00 0.00 87 1014.9
20260508064442 12 237 3.2 3.2 0.00 0.00 0.00 87 1015.1
20260508063925 12 238 3.2 3.2 0.00 0.00 0.00 87 1015.2
20260508063457 12 236 3.2 4.8 0.00 0.00 0.00 87 1015.2
20260508063024 12 236 1.6 4.8 0.00 0.00 0.00 87 1015.0
20260508062926 12 236 3.2 4.8 0.00 0.00 0.00 88 1015.2
20260508062424 12 239 3.2 3.2 0.00 0.00 0.00 88 1015.3
20260508061935 12 240 3.2 3.2 0.00 0.00 0.00 87 1015.3
20260508061532 12 241 1.6 3.2 0.00 0.00 0.00 87 1015.0
20260508061445 12 241 1.6 3.2 0.00 0.00 0.00 87 1015.3
20260508060936 12 248 1.6 3.2 0.00 0.00 0.00 87 1015.4
20260508060439 12 238 3.2 3.2 0.00 0.00 0.00 87 1015.4
20260508060022 12 240 1.6 3.2 0.00 0.00 0.00 87 1015.0
20260508055929 12 245 3.2 3.2 0.00 0.00 0.00 86 1015.3
20260508055441 12 240 3.2 3.2 0.00 0.00 0.00 85 1015.4
20260508055012 12 239 3.2 3.2 0.00 0.00 0.00 84 1015.3
20260508054504 12 243 1.6 3.2 0.00 0.00 0.00 84 1015.1
20260508054429 12 243 1.6 3.2 0.00 0.00 0.00 84 1015.3
20260508053940 12 240 1.6 3.2 0.00 0.00 0.00 84 1015.4
20260508053452 12 241 1.6 3.2 0.00 0.00 0.00 84 1015.4
20260508053058 12 243 1.6 3.2 0.00 0.00 0.00 84 1015.2
20260508053000 12 245 1.6 3.2 0.00 0.00 0.00 84 1015.4
20260508052440 13 240 1.6 3.2 0.00 0.00 0.00 83 1015.4
20260508051931 13 233 1.6 3.2 0.00 0.00 0.00 83 1015.4
20260508051539 12 233 1.6 1.6 0.00 0.00 0.00 83 1015.1
20260508051436 13 233 1.6 1.6 0.00 0.00 0.00 83 1015.3
20260508050939 13 224 1.6 3.2 0.00 0.00 0.00 82 1015.4
20260508050443 13 235 1.6 3.2 0.00 0.00 0.00 81 1015.5
20260508050025 13 236 1.6 4.8 0.00 0.00 0.00 81 1015.1
20260508045934 13 237 1.6 6.4 0.00 0.00 0.00 81 1015.4
20260508045456 13 231 3.2 8.0 0.00 0.00 0.00 81 1015.5
20260508044945 13 236 3.2 6.4 0.00 0.00 0.00 83 1015.5
20260508044609 13 231 3.2 6.4 0.00 0.00 0.00 83 1015.3
20260508044505 13 235 3.2 6.4 0.00 0.00 0.00 84 1015.5
20260508043943 13 231 3.2 4.8 0.00 0.00 0.00 84 1015.5
20260508043430 13 234 3.2 4.8 0.00 0.00 0.00 83 1015.4
20260508043113 13 238 1.6 4.8 0.00 0.00 0.00 83 1015.1
20260508042958 13 234 1.6 4.8 0.00 0.00 0.00 82 1015.4
20260508042425 13 219 1.6 8.0 0.00 0.00 0.00 82 1015.5
20260508042008 13 229 3.2 8.0 0.00 0.00 0.00 82 1015.4
20260508041509 13 206 1.6 8.0 0.00 0.00 0.00 82 1015.2
20260508041446 13 221 1.6 8.0 0.00 0.00 0.00 82 1015.5
20260508040937 13 234 1.6 8.0 0.00 0.00 0.00 82 1015.3
20260508040440 13 228 3.2 8.0 0.00 0.00 0.00 81 1015.4
20260508040017 13 229 1.6 9.7 0.00 0.00 0.00 81 1015.1
20260508035929 14 217 1.6 9.7 0.00 0.00 0.00 81 1015.4
20260508035433 14 236 3.2 11.3 0.00 0.00 0.00 80 1015.4
20260508034947 14 239 3.2 11.3 0.00 0.00 0.00 80 1015.3
20260508034507 13 245 3.2 11.3 0.00 0.00 0.00 80 1015.2
20260508034440 14 217 3.2 11.3 0.00 0.00 0.00 80 1015.4
20260508033924 14 220 4.8 11.3 0.00 0.00 0.00 80 1015.2
20260508033430 14 193 4.8 9.7 0.00 0.00 0.00 81 1015.4
20260508033038 13 224 3.2 9.7 0.00 0.00 0.00 81 1015.2
20260508032936 14 217 4.8 9.7 0.00 0.00 0.00 81 1015.4
20260508032434 14 189 3.2 12.9 0.00 0.00 0.00 81 1015.4
20260508031933 14 212 4.8 12.9 0.00 0.00 0.00 81 1015.3
20260508031601 13 190 3.2 11.3 0.00 0.00 0.00 81 1015.1
20260508031457 14 233 3.2 11.3 0.00 0.00 0.00 81 1015.4
20260508030931 14 252 4.8 11.3 0.00 0.00 0.00 80 1015.3
20260508030026 14 236 3.2 9.7 0.00 0.00 0.00 81 1015.1
20260508025953 14 214 3.2 9.7 0.00 0.00 0.00 80 1015.4
20260508025433 15 247 4.8 9.7 0.00 0.00 0.00 80 1015.3
20260508024937 15 238 3.2 9.7 0.00 0.00 0.00 79 1015.3
20260508024531 15 238 3.2 9.7 0.00 0.00 0.00 79 1015.1
20260508024432 15 231 3.2 8.0 0.00 0.00 0.00 79 1015.3
20260508023933 15 242 3.2 11.3 0.00 0.00 0.00 79 1015.2
20260508023434 15 230 3.2 11.3 0.00 0.00 0.00 78 1015.2
20260508023007 15 292 3.2 11.3 0.00 0.00 0.00 78 1014.9
20260508022935 15 236 4.8 11.3 0.00 0.00 0.00 78 1015.2
20260508022440 15 235 4.8 11.3 0.00 0.00 0.00 78 1015.0
20260508021943 15 210 4.8 12.9 0.00 0.00 0.00 77 1015.0
20260508021620 15 227 3.2 12.9 0.00 0.00 0.00 77 1014.8
20260508021449 15 234 4.8 12.9 0.00 0.00 0.00 76 1015.1
20260508020937 16 192 6.4 12.9 0.00 0.00 0.00 75 1015.0
20260508020448 16 228 6.4 12.9 0.00 0.00 0.00 74 1014.9
20260508020025 16 181 4.8 11.3 0.00 0.00 0.00 73 1014.7
20260508015937 16 222 6.4 11.3 0.00 0.00 0.00 72 1014.9
20260508015448 16 206 4.8 6.4 0.00 0.00 0.00 72 1014.8
20260508014930 16 217 4.8 6.4 0.00 0.00 0.00 70 1014.8
20260508014511 16 193 3.2 6.4 0.00 0.00 0.00 71 1014.6
20260508014500 16 216 3.2 6.4 0.00 0.00 0.00 72 1014.8
20260508013930 16 229 1.6 6.4 0.00 0.00 0.00 73 1014.8
20260508013457 16 229 1.6 8.0 0.00 0.00 0.00 72 1014.7
20260508013041 16 210 3.2 8.0 0.00 0.00 0.00 71 1014.5
20260508012946 17 225 3.2 8.0 0.00 0.00 0.00 71 1014.7
20260508012446 17 226 3.2 6.4 0.00 0.00 0.00 71 1014.5
20260508011936 17 228 3.2 8.0 0.00 0.00 0.00 70 1014.6
20260508011537 17 235 3.2 8.0 0.00 0.00 0.00 70 1014.4
20260508011426 17 219 4.8 8.0 0.00 0.00 0.00 69 1014.6
20260508010957 17 226 4.8 8.0 0.00 0.00 0.00 68 1014.5
20260508010449 17 214 4.8 6.4 0.00 0.00 0.00 67 1014.6
20260508010012 17 255 3.2 6.4 0.00 0.00 0.00 66 1014.3
20260508005929 17 189 4.8 6.4 0.00 0.00 0.00 66 1014.5
20260508005440 17 191 3.2 6.4 0.00 0.00 0.00 65 1014.6
20260508004922 17 207 4.8 6.4 0.00 0.00 0.00 65 1014.6
20260508004524 17 231 3.2 6.4 0.00 0.00 0.00 64 1014.3
20260508004432 17 212 3.2 6.4 0.00 0.00 0.00 64 1014.5
20260508003944 17 214 3.2 6.4 0.00 0.00 0.00 65 1014.5
20260508003426 17 211 3.2 6.4 0.00 0.00 0.00 65 1014.5
20260508003027 17 185 3.2 9.7 0.00 0.00 0.00 65 1014.2
20260508002936 17 203 3.2 9.7 0.00 0.00 0.00 65 1014.4
20260508002447 17 195 4.8 9.7 0.00 0.00 0.00 64 1014.4
20260508001929 18 228 4.8 6.4 0.00 0.00 0.00 64 1014.3
20260508001536 17 170 3.2 4.8 0.00 0.00 0.00 63 1014.2
20260508001434 18 188 3.2 4.8 0.00 0.00 0.00 63 1014.4
20260508000937 18 215 0.0 1.6 0.00 0.00 0.00 60 1014.4
20260508000450 18 181 0.0 3.2 0.00 0.00 0.00 60 1014.4
20260508000020 18 222 0.0 4.8 0.00 0.00 0.00 61 1014.2
20260507235938 18 222 1.6 4.8 0.00 0.00 0.00 60 1014.3
20260507235420 18 161 1.6 4.8 0.00 0.00 0.00 62 1014.4
20260507234931 18 170 0.0 3.2 0.00 0.00 0.00 62 1014.4
20260507234529 18 169 0.0 1.6 0.00 0.00 0.00 61 1014.3
20260507234441 18 170 0.0 1.6 0.00 0.00 0.00 61 1014.5
20260507233924 18 155 0.0 1.6 0.00 0.00 0.00 62 1014.4
20260507233436 18 46 0.0 0.0 0.00 0.00 0.00 62 1014.6
20260507233037 18 46 0.0 0.0 0.00 0.00 0.00 59 1014.5
20260507232946 19 46 0.0 1.6 0.00 0.00 0.00 60 1014.7
20260507232429 19 45 0.0 1.6 0.00 0.00 0.00 60 1014.6
20260507231940 19 46 0.0 1.6 0.00 0.00 0.00 61 1014.7
20260507231550 18 46 0.0 1.6 0.00 0.00 0.00 61 1014.6
20260507231421 19 46 0.0 1.6 0.00 0.00 0.00 60 1014.7
20260507230952 18 45 0.0 3.2 0.00 0.00 0.00 61 1014.7
20260507230423 18 46 1.6 3.2 0.00 0.00 0.00 59 1014.7
20260507230033 18 45 0.0 3.2 0.00 0.00 0.00 62 1014.5
20260507225933 19 45 1.6 3.2 0.00 0.00 0.00 60 1014.6
20260507225436 18 45 0.0 3.2 0.00 0.00 0.00 62 1014.6
20260507224928 19 45 1.6 3.2 0.00 0.00 0.00 61 1014.5
20260507224539 19 46 0.0 3.2 0.00 0.00 0.00 60 1014.5
20260507224424 20 43 0.0 3.2 0.00 0.00 0.00 59 1014.6
20260507223935 20 43 0.0 3.2 0.00 0.00 0.00 59 1014.7
20260507223424 20 248 0.0 1.6 0.00 0.00 0.00 58 1014.6
20260507223051 20 248 0.0 1.6 0.00 0.00 0.00 60 1014.5
20260507222925 20 248 0.0 3.2 0.00 0.00 0.00 58 1014.6
20260507222505 20 296 0.0 3.2 0.00 0.00 0.00 57 1014.7
20260507221927 20 296 1.6 3.2 0.00 0.00 0.00 58 1014.8
20260507221532 20 347 0.0 4.8 0.00 0.00 0.00 54 1014.6
20260507221457 20 30 1.6 4.8 0.00 0.00 0.00 54 1014.7
20260507220947 20 39 1.6 4.8 0.00 0.00 0.00 55 1014.6
20260507220430 21 53 1.6 4.8 0.00 0.00 0.00 54 1014.6
20260507220023 21 237 0.0 3.2 0.00 0.00 0.00 53 1014.6
20260507215939 21 233 0.0 3.2 0.00 0.00 0.00 54 1014.7
20260507215430 21 233 1.6 4.8 0.00 0.00 0.00 55 1014.7
20260507214943 21 233 3.2 4.8 0.00 0.00 0.00 54 1014.8
20260507214506 21 254 0.0 4.8 0.00 0.00 0.00 54 1014.6
20260507214424 21 254 1.6 4.8 0.00 0.00 0.00 55 1014.7
20260507213935 21 244 1.6 3.2 0.00 0.00 0.00 55 1014.6
20260507213437 21 23 0.0 1.6 0.00 0.00 0.00 54 1014.6
20260507213022 21 23 0.0 1.6 0.00 0.00 0.00 56 1014.6
20260507212928 21 20 0.0 1.6 0.00 0.00 0.00 58 1014.6
20260507212435 21 18 0.0 3.2 0.00 0.00 0.00 57 1014.6
20260507211938 20 15 3.2 6.4 0.00 0.00 0.00 54 1014.6
20260507211522 20 13 0.0 6.4 0.00 0.00 0.00 51 1014.6
20260507211448 20 13 1.6 6.4 0.00 0.00 0.00 51 1014.7
20260507210939 20 56 3.2 4.8 0.00 0.00 0.00 54 1014.8
20260507210423 20 308 1.6 4.8 0.00 0.00 0.00 55 1014.8
20260507210008 20 51 1.6 4.8 0.00 0.00 0.00 55 1014.7
20260507205953 20 50 1.6 4.8 0.00 0.00 0.00 54 1014.7
20260507205424 20 42 0.0 3.2 0.00 0.00 0.00 56 1014.9
20260507204936 20 43 0.0 3.2 0.00 0.00 0.00 54 1015.0
20260507204605 20 43 0.0 3.2 0.00 0.00 0.00 52 1015.1
20260507204436 20 319 1.6 4.8 0.00 0.00 0.00 60 1015.0
20260507203926 20 53 1.6 4.8 0.00 0.00 0.00 57 1015.0
20260507203438 20 57 1.6 8.0 0.00 0.00 0.00 57 1015.1
20260507203056 20 57 3.2 8.0 0.00 0.00 0.00 55 1015.1
20260507202947 20 57 4.8 8.0 0.00 0.00 0.00 55 1015.1
20260507202430 20 63 3.2 4.8 0.00 0.00 0.00 53 1015.2
20260507201937 20 143 0.0 1.6 0.00 0.00 0.00 57 1015.3
20260507201537 20 165 0.0 3.2 0.00 0.00 0.00 59 1015.3
20260507201443 21 171 0.0 3.2 0.00 0.00 0.00 60 1015.4
20260507200934 20 171 1.6 4.8 0.00 0.00 0.00 53 1015.4
20260507200505 20 59 1.6 4.8 0.00 0.00 0.00 56 1015.5
20260507200101 20 72 1.6 4.8 0.00 0.00 0.00 57 1015.5
20260507195943 21 264 1.6 3.2 0.00 0.15 0.00 59 1015.6
20260507195434 20 52 1.6 4.8 0.00 0.15 0.00 59 1015.6
20260507194942 20 50 1.6 4.8 0.00 0.15 0.00 62 1015.7
20260507194543 19 8 0.0 1.6 0.00 0.15 0.00 66 1015.7
20260507194423 19 75 0.0 1.6 0.00 0.15 0.00 66 1015.8
20260507193934 18 75 0.0 4.8 0.00 0.15 0.00 60 1015.9
20260507193427 18 52 3.2 4.8 0.00 0.15 0.00 61 1016.1
20260507193055 18 58 1.6 4.8 0.00 0.15 0.00 66 1016.1
20260507192928 18 54 1.6 4.8 0.00 0.15 0.00 63 1016.1
20260507192438 19 46 1.6 3.2 0.00 0.15 0.00 61 1016.1
20260507191929 18 65 1.6 3.2 0.00 0.15 0.00 57 1016.1
20260507191537 18 44 1.6 3.2 0.00 0.15 0.00 57 1016.2
20260507191440 19 35 1.6 4.8 0.00 0.15 0.00 56 1016.2
20260507190922 18 24 1.6 4.8 0.00 0.15 0.00 60 1016.2
20260507190428 19 184 1.6 4.8 0.00 0.15 0.00 61 1016.2
20260507190023 18 58 1.6 4.8 0.00 0.15 0.00 61 1016.2
20260507185936 19 13 1.6 3.2 0.00 0.43 0.00 63 1016.2
20260507185448 18 257 0.0 4.8 0.00 0.43 0.00 65 1016.3
20260507184931 18 53 3.2 4.8 0.00 0.43 0.00 61 1016.4
20260507184530 18 49 0.0 3.2 0.00 0.43 0.00 61 1016.5
20260507184441 18 49 1.6 3.2 0.00 0.43 0.00 61 1016.4
20260507183949 18 54 1.6 3.2 0.00 0.43 0.00 58 1016.5
20260507183432 18 21 1.6 3.2 0.00 0.43 0.00 58 1016.7
20260507183039 18 70 0.0 3.2 0.00 0.43 0.00 62 1016.8
20260507182942 18 70 0.0 3.2 0.00 0.43 0.00 60 1016.7
20260507182443 19 70 1.6 8.0 0.00 0.43 0.00 60 1016.8
20260507181934 19 209 3.2 8.0 0.00 0.43 0.00 55 1016.8
20260507181520 18 48 0.0 4.8 0.00 0.43 0.00 52 1017.0
20260507181422 19 47 1.6 4.8 0.00 0.43 0.00 52 1016.9
20260507180934 19 262 1.6 4.8 0.00 0.43 0.00 63 1017.0
20260507180445 18 34 1.6 6.4 0.00 0.43 0.00 57 1017.1
20260507180007 18 345 1.6 6.4 0.00 0.43 0.00 55 1017.2
20260507175944 18 51 1.6 4.8 0.00 0.66 0.00 53 1017.2
20260507175435 18 68 1.6 3.2 0.00 0.66 0.00 59 1017.3
20260507174928 18 276 1.6 4.8 0.00 0.66 0.00 70 1017.4
20260507174604 17 275 0.0 6.4 0.00 0.66 0.00 65 1017.6
20260507174429 17 263 3.2 6.4 0.00 0.66 0.00 63 1017.5
20260507173939 17 288 1.6 6.4 0.00 0.66 0.00 60 1017.5
20260507173510 17 27 1.6 6.4 0.00 0.66 0.00 61 1017.5
20260507173103 17 56 1.6 6.4 0.00 0.66 0.00 57 1017.6
20260507172931 18 68 1.6 6.4 0.00 0.66 0.00 62 1017.6
20260507172422 17 68 1.6 6.4 0.00 0.66 0.00 62 1017.6
20260507171926 17 131 3.2 4.8 0.00 0.66 0.00 64 1017.8
20260507171505 17 63 0.0 3.2 0.00 0.66 0.00 64 1018.0
20260507171436 17 56 1.6 3.2 0.00 0.66 0.00 64 1017.8
20260507170927 17 58 1.6 4.8 0.00 0.66 0.00 63 1017.9
20260507170430 17 47 1.6 8.0 0.00 0.66 0.00 63 1017.9
20260507170016 17 29 3.2 8.0 0.00 0.66 0.00 56 1018.2
20260507165940 17 47 3.2 8.0 0.00 0.69 0.00 63 1018.0
20260507165434 17 64 1.6 3.2 0.00 0.69 0.00 67 1018.1
20260507164935 17 340 1.6 4.8 0.00 0.69 0.00 61 1018.1
20260507164522 17 54 0.0 4.8 0.00 0.69 0.00 61 1018.3
20260507164425 17 56 1.6 6.4 0.00 0.69 0.00 60 1018.2
20260507163928 16 58 1.6 6.4 0.00 0.69 0.00 67 1018.2
20260507163455 16 61 1.6 6.4 0.00 0.69 0.00 64 1018.3
20260507163007 16 51 1.6 6.4 0.00 0.69 0.00 66 1018.5
20260507162923 16 58 3.2 6.4 0.00 0.69 0.00 65 1018.3
20260507162455 16 65 3.2 6.4 0.00 0.69 0.00 65 1018.3